When you browse on this site, cookies collect data to enhance your experience and personalize the content and advertising you see.
Visit our Privacy Policy to learn more. By continuing to use the site, you agree to this use of cookies and data.
  • In Österreich
  • Länderverzeichnis
  • Für 7 Tage
  • Wassertemperatur
  • Wetterkarte
  • News
  • Widgets
  • user-avatar
    Anmelden

    Stündliche Wetter Hlushyts'ke

    Heute, 17 September, Dienstag

    Zeit Temperatur Niederschläge Wind Luftdruck Luftfeuchtigkeit
    00:00 +10°C° 0 mm 3 m/S 744 mmHg 75%
    01:00 +10°C° 0 mm 3 m/S 744 mmHg 74%
    02:00 +10°C° 0 mm 3 m/S 744 mmHg 74%
    03:00 +10°C° 0 mm 3 m/S 744 mmHg 77%
    04:00 +9°C° 0 mm 3 m/S 744 mmHg 79%
    05:00 +8°C° 0 mm 3 m/S 744 mmHg 82%
    06:00 +8°C° 0 mm 4 m/S 744 mmHg 78%
    07:00 +9°C° 0 mm 5 m/S 744 mmHg 74%
    08:00 +9°C° 0 mm 5 m/S 744 mmHg 70%
    09:00 +12°C° 0 mm 5 m/S 744 mmHg 64%
    10:00 +13°C° 0 mm 6 m/S 744 mmHg 58%
    11:00 +15°C° 0 mm 6 m/S 744 mmHg 53%
    12:00 +15°C° 0 mm 6 m/S 743 mmHg 50%
    13:00 +16°C° 0 mm 5 m/S 743 mmHg 46%
    14:00 +17°C° 0 mm 5 m/S 742 mmHg 43%
    15:00 +16°C° 0 mm 5 m/S 742 mmHg 46%
    16:00 +15°C° 0 mm 5 m/S 741 mmHg 49%
    17:00 +14°C° 0 mm 5 m/S 741 mmHg 52%
    18:00 +14°C° 0 mm 5 m/S 741 mmHg 55%
    19:00 +13°C° 0 mm 4 m/S 741 mmHg 58%
    20:00 +12°C° 0 mm 4 m/S 741 mmHg 61%
    21:00 +11°C° 0.2 mm 4 m/S 740 mmHg 66%
    22:00 +11°C° 0.2 mm 4 m/S 740 mmHg 72%
    23:00 +10°C° 0.2 mm 4 m/S 739 mmHg 78%

    Morgen, 18 September, Mittwoch

    Zeit Temperatur Niederschläge Wind Luftdruck Luftfeuchtigkeit
    00:00 +8°C° 0.3 mm 4 m/S 739 mmHg 81%
    01:00 +7°C° 0.3 mm 5 m/S 739 mmHg 84%
    02:00 +7°C° 0.3 mm 5 m/S 739 mmHg 87%
    03:00 +7°C° 0.4 mm 6 m/S 739 mmHg 86%
    04:00 +5°C° 0.4 mm 6 m/S 739 mmHg 85%
    05:00 +5°C° 0.4 mm 6 m/S 739 mmHg 83%
    06:00 +5°C° 0.1 mm 7 m/S 739 mmHg 82%
    07:00 +5°C° 0.1 mm 7 m/S 739 mmHg 80%
    08:00 +5°C° 0.1 mm 7 m/S 739 mmHg 79%
    09:00 +6°C° 0 mm 7 m/S 740 mmHg 77%
    10:00 +6°C° 0 mm 7 m/S 740 mmHg 76%
    11:00 +8°C° 0 mm 7 m/S 741 mmHg 74%
    12:00 +7°C° 0.3 mm 8 m/S 741 mmHg 73%
    13:00 +9°C° 0.3 mm 8 m/S 741 mmHg 71%
    14:00 +10°C° 0.3 mm 8 m/S 741 mmHg 70%
    15:00 +10°C° 0.1 mm 7 m/S 742 mmHg 66%
    16:00 +11°C° 0.1 mm 7 m/S 743 mmHg 63%
    17:00 +13°C° 0.1 mm 6 m/S 744 mmHg 60%
    18:00 +10°C° 0.1 mm 6 m/S 744 mmHg 67%
    19:00 +9°C° 0.1 mm 6 m/S 745 mmHg 74%
    20:00 +8°C° 0.1 mm 5 m/S 746 mmHg 81%
    21:00 +8°C° 0 mm 5 m/S 746 mmHg 81%
    22:00 +7°C° 0 mm 5 m/S 747 mmHg 81%
    23:00 +7°C° 0 mm 5 m/S 747 mmHg 82%

    übermorgen, 19 September, Donnerstag

    Zeit Temperatur Niederschläge Wind Luftdruck Luftfeuchtigkeit
    00:00 +6°C° 0 mm 5 m/S 747 mmHg 84%
    01:00 +6°C° 0 mm 5 m/S 748 mmHg 85%
    02:00 +6°C° 0 mm 4 m/S 748 mmHg 87%
    03:00 +5°C° 0 mm 4 m/S 748 mmHg 89%
    04:00 +5°C° 0 mm 4 m/S 749 mmHg 91%
    05:00 +5°C° 0 mm 4 m/S 749 mmHg 93%
    06:00 +5°C° 0 mm 4 m/S 749 mmHg 88%
    07:00 +6°C° 0 mm 5 m/S 749 mmHg 83%
    08:00 +7°C° 0 mm 5 m/S 750 mmHg 79%
    09:00 +9°C° 0 mm 5 m/S 750 mmHg 72%
    10:00 +10°C° 0 mm 5 m/S 750 mmHg 64%
    11:00 +13°C° 0 mm 6 m/S 750 mmHg 57%
    12:00 +13°C° 0.4 mm 6 m/S 750 mmHg 57%
    13:00 +13°C° 0.4 mm 6 m/S 750 mmHg 57%
    14:00 +14°C° 0.4 mm 6 m/S 750 mmHg 57%
    15:00 +13°C° 0.2 mm 5 m/S 750 mmHg 59%
    16:00 +13°C° 0.2 mm 4 m/S 750 mmHg 62%
    17:00 +12°C° 0.2 mm 4 m/S 750 mmHg 64%
    18:00 +11°C° 0.1 mm 4 m/S 750 mmHg 70%
    19:00 +10°C° 0.1 mm 3 m/S 750 mmHg 75%
    20:00 +8°C° 0.1 mm 3 m/S 750 mmHg 81%
    21:00 +8°C° 0 mm 3 m/S 750 mmHg 82%
    22:00 +8°C° 0 mm 3 m/S 750 mmHg 83%
    23:00 +6°C° 0 mm 4 m/S 750 mmHg 84%

    20 September, Freitag

    Zeit Temperatur Niederschläge Wind Luftdruck Luftfeuchtigkeit
    00:00 +6°C° 0 mm 4 m/S 751 mmHg 86%
    01:00 +5°C° 0 mm 4 m/S 751 mmHg 88%
    02:00 +4°C° 0 mm 4 m/S 751 mmHg 90%
    03:00 +4°C° 0 mm 4 m/S 751 mmHg 91%
    04:00 +4°C° 0 mm 4 m/S 751 mmHg 92%
    05:00 +3°C° 0 mm 4 m/S 751 mmHg 93%
    06:00 +4°C° 0 mm 4 m/S 751 mmHg 88%
    07:00 +5°C° 0 mm 5 m/S 751 mmHg 83%
    08:00 +5°C° 0 mm 5 m/S 752 mmHg 78%
    09:00 +7°C° 0 mm 6 m/S 752 mmHg 68%
    10:00 +8°C° 0 mm 6 m/S 752 mmHg 58%
    11:00 +10°C° 0 mm 6 m/S 752 mmHg 48%
    12:00 +10°C° 0.1 mm 6 m/S 752 mmHg 48%
    13:00 +11°C° 0.1 mm 6 m/S 752 mmHg 48%
    14:00 +11°C° 0.1 mm 6 m/S 751 mmHg 48%
    15:00 +11°C° 0.1 mm 6 m/S 751 mmHg 50%
    16:00 +10°C° 0.1 mm 5 m/S 751 mmHg 52%
    17:00 +10°C° 0.1 mm 5 m/S 751 mmHg 55%
    18:00 +10°C° 0 mm 4 m/S 751 mmHg 59%
    19:00 +7°C° 0 mm 4 m/S 752 mmHg 63%
    20:00 +7°C° 0 mm 3 m/S 752 mmHg 67%
    21:00 +5°C° 0 mm 3 m/S 752 mmHg 70%
    22:00 +5°C° 0 mm 3 m/S 753 mmHg 73%
    23:00 +4°C° 0 mm 3 m/S 753 mmHg 76%

    21 September, Samstag

    Zeit Temperatur Niederschläge Wind Luftdruck Luftfeuchtigkeit
    00:00 +3°C° 0 mm 3 m/S 753 mmHg 80%
    01:00 +3°C° 0 mm 3 m/S 753 mmHg 84%
    02:00 +3°C° 0 mm 2 m/S 754 mmHg 87%
    03:00 +3°C° 0 mm 2 m/S 754 mmHg 89%
    04:00 +3°C° 0 mm 2 m/S 754 mmHg 91%
    05:00 +2°C° 0 mm 2 m/S 754 mmHg 93%
    06:00 +4°C° 0 mm 2 m/S 754 mmHg 88%
    07:00 +5°C° 0 mm 2 m/S 754 mmHg 84%
    08:00 +6°C° 0 mm 2 m/S 755 mmHg 79%
    09:00 +7°C° 0 mm 3 m/S 755 mmHg 68%
    10:00 +9°C° 0 mm 3 m/S 755 mmHg 58%
    11:00 +11°C° 0 mm 3 m/S 756 mmHg 48%
    12:00 +12°C° 0 mm 3 m/S 755 mmHg 46%
    13:00 +12°C° 0 mm 3 m/S 755 mmHg 43%
    14:00 +13°C° 0 mm 3 m/S 755 mmHg 41%
    15:00 +12°C° 0 mm 3 m/S 755 mmHg 44%
    16:00 +12°C° 0 mm 3 m/S 755 mmHg 46%
    17:00 +13°C° 0 mm 2 m/S 755 mmHg 49%
    18:00 +10°C° 0 mm 2 m/S 755 mmHg 54%
    19:00 +10°C° 0 mm 1 m/S 756 mmHg 58%
    20:00 +8°C° 0 mm 1 m/S 756 mmHg 63%
    21:00 +8°C° 0 mm 1 m/S 756 mmHg 63%
    22:00 +8°C° 0 mm 1 m/S 756 mmHg 63%
    23:00 +8°C° 0 mm 1 m/S 756 mmHg 63%

    22 September, Sonntag

    Zeit Temperatur Niederschläge Wind Luftdruck Luftfeuchtigkeit
    00:00 +7°C° 0 mm 2 m/S 756 mmHg 63%
    01:00 +7°C° 0 mm 2 m/S 756 mmHg 64%
    02:00 +7°C° 0 mm 2 m/S 756 mmHg 64%
    03:00 +8°C° 0.1 mm 2 m/S 756 mmHg 68%
    04:00 +8°C° 0.1 mm 2 m/S 756 mmHg 72%
    05:00 +8°C° 0.1 mm 2 m/S 756 mmHg 75%
    06:00 +9°C° 0 mm 3 m/S 756 mmHg 78%
    07:00 +10°C° 0 mm 3 m/S 756 mmHg 80%
    08:00 +10°C° 0 mm 3 m/S 756 mmHg 82%
    09:00 +12°C° 0 mm 3 m/S 756 mmHg 75%
    10:00 +14°C° 0 mm 3 m/S 756 mmHg 68%
    11:00 +17°C° 0 mm 3 m/S 757 mmHg 60%
    12:00 +18°C° 0 mm 3 m/S 756 mmHg 57%
    13:00 +18°C° 0 mm 3 m/S 756 mmHg 54%
    14:00 +19°C° 0 mm 3 m/S 756 mmHg 51%
    15:00 +19°C° 0 mm 3 m/S 756 mmHg 55%
    16:00 +18°C° 0 mm 2 m/S 756 mmHg 58%
    17:00 +18°C° 0 mm 2 m/S 756 mmHg 61%
    18:00 +16°C° 0 mm 1 m/S 756 mmHg 68%
    19:00 +14°C° 0 mm 1 m/S 756 mmHg 74%
    20:00 +13°C° 0 mm 1 m/S 756 mmHg 80%
    21:00 +12°C° 0 mm 1 m/S 756 mmHg 82%
    22:00 +12°C° 0 mm 1 m/S 757 mmHg 84%
    23:00 +12°C° 0 mm 2 m/S 757 mmHg 86%
    Mehr zeigen